FW9738 Weather Reports


Display with metric or nautical units.
time (UTC)temp
F
wind
direction
speed
MPH
gust
MPH
rain 1hr
in
rain 24hr
in
rain mn
in
humidity
%
barometer
mb
20260509064239 55 135 0.0 0.0 0.00 0.00 0.00 79 1013.5
20260509063730 55 135 0.0 4.0 0.00 0.00 0.00 78 1013.7
20260509063219 55 135 0.0 4.0 0.00 0.00 0.00 76 1013.5
20260509062709 56 180 2.0 4.0 0.00 0.00 0.00 74 1013.4
20260509061649 55 225 0.0 4.0 0.00 0.00 0.00 77 1013.2
20260509061139 55 180 2.0 4.0 0.00 0.00 0.00 77 1013.3
20260509060118 55 180 4.0 6.0 0.00 0.00 0.00 76 1013.2
20260509055608 55 180 3.0 6.0 0.00 0.00 0.00 76 1012.9
20260509055056 55 180 4.0 0.0 0.00 0.00 0.00 76 1013.3
20260509053522 55 158 0.0 2.0 0.00 0.00 0.00 75 1012.6
20260509053013 55 180 0.0 0.0 0.00 0.00 0.00 75 1012.6
20260509052502 55 158 0.0 0.0 0.00 0.00 0.00 76 1012.2
20260509051953 55 158 0.0 0.0 0.00 0.00 0.00 75 1012.1
20260509051442 56 135 0.0 0.0 0.00 0.00 0.00 73 1012.1
20260509050933 56 135 0.0 0.0 0.00 0.00 0.00 73 1011.8
20260509050422 56 135 0.0 2.0 0.00 0.00 0.00 73 1012.2
20260509045912 56 135 0.0 2.0 0.00 0.00 0.00 73 1012.2
20260509045402 56 135 0.0 2.0 0.00 0.00 0.00 73 1011.9
20260509044851 56 158 0.0 2.0 0.00 0.00 0.00 72 1011.7
20260509044342 56 180 0.0 4.0 0.00 0.00 0.00 73 1011.8
20260509043831 55 158 1.0 4.0 0.00 0.00 0.00 74 1011.8
20260509043321 55 135 0.0 2.0 0.00 0.00 0.00 75 1011.6
20260509042812 55 180 0.0 2.0 0.00 0.00 0.00 75 1011.5
20260509040221 55 180 0.0 4.0 0.00 0.00 0.00 76 1010.6
20260509035711 55 203 1.0 4.0 0.00 0.00 0.00 75 1010.5
20260509035200 55 158 1.0 4.0 0.00 0.00 0.00 75 1010.7
20260509034650 54 135 1.0 4.0 0.00 0.00 0.00 76 1010.4
20260509033630 54 180 0.0 4.0 0.00 0.00 0.00 77 1010.3
20260509033119 54 135 1.0 4.0 0.00 0.00 0.00 77 1010.2
20260509032609 54 203 0.0 2.0 0.00 0.00 0.00 77 1010.1
20260509032100 54 180 0.0 2.0 0.00 0.00 0.00 76 1009.8
20260509031549 54 158 0.0 2.0 0.00 0.00 0.00 77 1009.8
20260509031040 53 203 0.0 0.0 0.00 0.00 0.00 78 1010.0
20260509030529 53 158 0.0 0.0 0.00 0.00 0.00 79 1009.6
20260509030026 53 180 0.0 0.0 0.00 0.00 0.00 79 1009.7
20260509025509 53 203 0.0 2.0 0.00 0.00 0.00 79 1009.6
20260509024959 53 180 0.0 2.0 0.00 0.00 0.00 79 1009.3
20260509024448 53 158 0.0 0.0 0.00 0.00 0.00 79 1009.0
20260509023941 52 158 0.0 0.0 0.00 0.00 0.00 79 1009.0
20260509023429 52 158 0.0 0.0 0.00 0.00 0.00 80 1008.9
20260509022918 52 158 0.0 0.0 0.00 0.00 0.00 80 1008.9
20260509022408 52 135 0.0 0.0 0.00 0.00 0.00 80 1008.4
20260509021859 52 158 0.0 0.0 0.00 0.00 0.00 80 1008.3
20260509020838 51 135 0.0 0.0 0.00 0.00 0.00 83 1008.3
20260509015818 50 135 0.0 0.0 0.00 0.00 0.00 85 1007.9
20260509014757 50 135 0.0 0.0 0.00 0.00 0.00 86 1007.8
20260509014247 49 135 0.0 0.0 0.00 0.00 0.00 87 1007.7
20260509013738 49 135 0.0 0.0 0.00 0.00 0.00 88 1007.5
20260509013228 49 135 0.0 0.0 0.00 0.00 0.00 88 1007.7
20260509012207 50 158 0.0 0.0 0.00 0.00 0.00 86 1007.3
20260509011147 51 135 0.0 0.0 0.00 0.00 0.00 83 1007.3
20260509010636 51 203 0.0 0.0 0.00 0.00 0.00 83 1007.0
20260509010127 51 203 0.0 0.0 0.00 0.00 0.00 83 1007.2
20260509005106 50 158 0.0 0.0 0.00 0.00 0.00 82 1006.5
20260509004557 51 135 0.0 0.0 0.00 0.00 0.00 83 1006.4
20260509003536 51 135 0.0 0.0 0.00 0.00 0.00 83 1006.2
20260509003025 51 113 0.0 0.0 0.00 0.00 0.00 83 1006.6
20260509002516 52 135 0.0 2.0 0.00 0.00 0.00 80 1006.4
20260509002007 52 203 1.0 2.0 0.00 0.00 0.00 79 1006.2
20260509001455 52 180 0.0 2.0 0.00 0.00 0.00 79 1006.3
20260509000945 52 158 0.0 2.0 0.00 0.00 0.00 80 1006.2
20260509000435 52 180 0.0 2.0 0.00 0.00 0.00 77 1006.3
20260508235926 53 203 0.0 2.0 0.00 0.00 0.00 76 1005.9
20260508235415 53 203 0.0 2.0 0.00 0.00 0.00 74 1006.0
20260508234905 53 225 0.0 0.0 0.00 0.00 0.00 73 1005.9
20260508233845 53 225 0.0 0.0 0.00 0.00 0.00 74 1006.0
20260508233335 53 225 0.0 0.0 0.00 0.00 0.00 72 1005.9
20260508232824 53 225 0.0 0.0 0.00 0.00 0.00 72 1005.5
20260508232315 54 225 0.0 0.0 0.00 0.00 0.00 70 1005.6
20260508231804 54 225 0.0 0.0 0.00 0.00 0.00 69 1005.4
20260508231253 55 225 0.0 0.0 0.00 0.00 0.00 68 1005.4
20260508230744 55 225 0.0 0.0 0.00 0.00 0.00 69 1005.3
20260508230235 55 225 0.0 0.0 0.00 0.00 0.00 69 1005.4
20260508225724 56 225 0.0 0.0 0.00 0.00 0.00 67 1005.3
20260508225213 57 248 0.0 0.0 0.00 0.00 0.00 64 1005.4
20260508224704 57 225 0.0 0.0 0.00 0.00 0.00 62 1005.2
20260508224154 58 248 0.0 0.0 0.00 0.00 0.00 61 1005.4
20260508223643 57 225 0.0 0.0 0.00 0.00 0.00 62 1005.3
20260508223134 57 248 0.0 0.0 0.00 0.00 0.00 62 1005.0
20260508222623 57 225 0.0 0.0 0.00 0.00 0.00 62 1005.1
20260508222113 57 270 0.0 0.0 0.00 0.00 0.00 63 1005.0
20260508221602 57 270 0.0 0.0 0.00 0.00 0.00 63 1005.1
20260508221053 56 293 0.0 0.0 0.00 0.00 0.00 64 1004.8
20260508220033 56 293 0.0 0.0 0.00 0.00 0.00 64 1004.8
20260508215522 57 0 0.0 0.0 0.00 0.00 0.00 61 1004.6
20260508215013 56 0 0.0 0.0 0.00 0.00 0.00 62 1004.6
20260508213953 57 0 0.0 2.0 0.00 0.00 0.00 61 1004.5
20260508213442 57 0 1.0 4.0 0.00 0.00 0.00 59 1004.7
20260508212421 59 338 2.0 4.0 0.00 0.00 0.00 56 1004.4
20260508211912 60 0 3.0 6.0 0.00 0.00 0.00 54 1004.7
20260508211401 60 338 4.0 7.0 0.00 0.00 0.00 51 1004.7
20260508210851 61 0 4.0 9.0 0.00 0.00 0.00 50 1004.6
20260508210341 61 0 4.0 9.0 0.00 0.00 0.00 49 1004.7
20260508205831 62 338 6.0 9.0 0.00 0.00 0.00 48 1004.8
20260508205321 62 0 5.0 8.0 0.00 0.00 0.00 47 1004.7
20260508204812 62 338 5.0 9.0 0.00 0.00 0.00 47 1004.9
20260508204301 62 0 6.0 11.0 0.00 0.00 0.00 46 1004.6
20260508203241 63 23 4.0 13.0 0.00 0.00 0.00 45 1004.6
20260508202731 63 0 5.0 13.0 0.00 0.00 0.00 45 1004.8
20260508200649 64 0 7.0 11.0 0.00 0.00 0.00 43 1005.0
20260508200140 64 0 4.0 9.0 0.00 0.00 0.00 42 1005.0
20260508195630 64 23 6.0 11.0 0.00 0.00 0.00 42 1004.8
20260508195120 64 23 7.0 14.0 0.00 0.00 0.00 41 1005.3
20260508194609 64 23 6.0 14.0 0.00 0.00 0.00 41 1005.1
20260508194100 65 23 8.0 14.0 0.00 0.00 0.00 41 1005.2
20260508193048 64 23 5.0 15.0 0.00 0.00 0.00 41 1005.2
20260508192529 64 23 9.0 15.0 0.00 0.00 0.00 40 1005.5
20260508192019 65 90 2.0 11.0 0.00 0.00 0.00 40 1005.5
20260508191516 65 338 4.0 11.0 0.00 0.00 0.00 39 1005.5
20260508190958 65 338 4.0 11.0 0.00 0.00 0.00 38 1005.7
20260508190449 65 338 2.0 11.0 0.00 0.00 0.00 39 1005.5
20260508185939 64 23 4.0 11.0 0.00 0.00 0.00 40 1005.9
20260508184919 65 0 2.0 11.0 0.00 0.00 0.00 39 1005.6
20260508184408 65 0 2.0 11.0 0.00 0.00 0.00 38 1005.8
20260508183859 65 0 5.0 11.0 0.00 0.00 0.00 39 1006.1
20260508183347 65 23 4.0 11.0 0.00 0.00 0.00 38 1006.4
20260508182838 65 0 8.0 11.0 0.00 0.00 0.00 38 1006.4
20260508182328 65 68 2.0 8.0 0.00 0.00 0.00 37 1006.6
20260508181817 65 45 0.0 6.0 0.00 0.00 0.00 37 1006.4
20260508180758 65 45 2.0 6.0 0.00 0.00 0.00 37 1006.8
20260508180247 65 45 2.0 8.0 0.00 0.00 0.00 37 1006.8
20260508175738 65 338 2.0 8.0 0.00 0.00 0.00 36 1006.8
20260508175227 64 90 0.0 8.0 0.00 0.00 0.00 37 1007.3
20260508173656 64 23 0.0 7.0 0.00 0.00 0.00 38 1007.7
20260508173146 65 0 2.0 6.0 0.00 0.00 0.00 37 1007.8
20260508172636 64 338 0.0 7.0 0.00 0.00 0.00 37 1008.0
20260508172127 63 338 0.0 8.0 0.00 0.00 0.00 37 1008.2
20260508171617 63 68 2.0 11.0 0.00 0.00 0.00 38 1008.2
20260508171106 64 23 6.0 11.0 0.00 0.00 0.00 38 1008.6
20260508170046 64 338 2.0 4.0 0.00 0.00 0.00 37 1008.8
20260508165538 64 113 0.0 9.0 0.00 0.00 0.00 36 1008.9
20260508164006 64 23 2.0 11.0 0.00 0.00 0.00 36 1009.2
20260508163455 63 23 0.0 8.0 0.00 0.00 0.00 37 1009.3
20260508162436 63 225 0.0 4.0 0.00 0.00 0.00 35 1009.9
20260508161926 63 68 0.0 4.0 0.00 0.00 0.00 38 1009.9
20260508160905 62 23 0.0 8.0 0.00 0.00 0.00 38 1010.1
20260508160354 62 68 2.0 8.0 0.00 0.00 0.00 36 1010.1
20260508155845 62 0 2.0 6.0 0.00 0.00 0.00 36 1010.1
20260508155334 61 113 0.0 6.0 0.00 0.00 0.00 37 1010.0
20260508154825 63 68 0.0 4.0 0.00 0.00 0.00 38 1010.4
20260508154315 63 113 0.0 4.0 0.00 0.00 0.00 35 1010.4
20260508153804 61 135 1.0 4.0 0.00 0.00 0.00 39 1010.5
20260508153254 62 135 0.0 2.0 0.00 0.00 0.00 38 1010.7
20260508152744 62 225 0.0 4.0 0.00 0.00 0.00 40 1011.0
20260508152233 61 113 0.0 4.0 0.00 0.00 0.00 39 1010.9
20260508151214 60 68 0.0 4.0 0.00 0.00 0.00 43 1011.3
20260508150703 59 158 0.0 4.0 0.00 0.00 0.00 44 1011.5
20260508150153 58 135 1.0 7.0 0.00 0.00 0.00 45 1011.5
20260508145643 58 113 2.0 7.0 0.00 0.00 0.00 44 1011.5
20260508145133 60 180 2.0 6.0 0.00 0.00 0.00 44 1011.9
20260508144624 58 135 0.0 4.0 0.00 0.00 0.00 46 1011.7
20260508144113 58 203 0.0 4.0 0.00 0.00 0.00 45 1011.6
20260508143603 58 158 1.0 4.0 0.00 0.00 0.00 44 1011.9
20260508142542 59 225 1.0 4.0 0.00 0.00 0.00 47 1011.9
20260508142033 59 135 0.0 4.0 0.00 0.00 0.00 44 1012.1
20260508141523 59 135 1.0 8.0 0.00 0.00 0.00 43 1011.9
20260508141012 58 158 1.0 8.0 0.00 0.00 0.00 44 1011.9
20260508140502 57 135 2.0 7.0 0.00 0.00 0.00 43 1012.1
20260508135442 57 135 1.0 7.0 0.00 0.00 0.00 47 1011.8
20260508134932 57 135 0.0 9.0 0.00 0.00 0.00 49 1011.7
20260508134421 56 158 4.0 9.0 0.00 0.00 0.00 45 1011.4
20260508133912 56 158 2.0 7.0 0.00 0.00 0.00 46 1011.3
20260508133401 56 135 2.0 9.0 0.00 0.00 0.00 48 1011.5
20260508132852 56 135 4.0 9.0 0.00 0.00 0.00 48 1011.4
20260508132341 56 135 1.0 7.0 0.00 0.00 0.00 50 1011.1
20260508131831 56 135 2.0 7.0 0.00 0.00 0.00 49 1011.2
20260508131322 56 180 2.0 7.0 0.00 0.00 0.00 51 1011.1
20260508130811 55 158 2.0 8.0 0.00 0.00 0.00 52 1011.1
20260508125751 55 158 2.0 9.0 0.00 0.00 0.00 56 1010.9
20260508125241 54 180 2.0 8.0 0.00 0.00 0.00 58 1010.6
20260508124731 54 135 1.0 8.0 0.00 0.00 0.00 62 1010.9
20260508124220 54 158 0.0 7.0 0.00 0.00 0.00 63 1010.7
20260508123710 53 158 0.0 7.0 0.00 0.00 0.00 68 1010.4
20260508122650 51 158 0.0 8.0 0.00 0.00 0.00 74 1010.4
20260508122139 50 158 1.0 4.0 0.00 0.00 0.00 77 1010.8
20260508121630 50 158 1.0 6.0 0.00 0.00 0.00 77 1010.3
20260508121121 49 135 3.0 6.0 0.00 0.00 0.00 80 1010.2
20260508120613 49 180 2.0 6.0 0.00 0.00 0.00 79 1010.5
20260508120100 48 248 1.0 4.0 0.00 0.00 0.00 81 1010.3
20260508115549 47 180 0.0 4.0 0.00 0.00 0.00 81 1010.0
20260508115039 46 158 0.0 11.0 0.00 0.00 0.00 82 1009.8
20260508114528 46 203 2.0 15.0 0.00 0.00 0.00 79 1009.8
20260508114019 46 203 2.0 15.0 0.00 0.00 0.00 76 1009.8
20260508113509 42 135 2.0 4.0 0.00 0.00 0.00 92 1009.3
20260508111428 40 158 0.0 0.0 0.00 0.00 0.00 91 1008.5
20260508110919 40 180 0.0 0.0 0.00 0.00 0.00 91 1008.5
20260508110408 40 158 0.0 0.0 0.00 0.00 0.00 91 1008.2
20260508105858 40 158 0.0 0.0 0.00 0.00 0.00 92 1008.1
20260508105349 39 135 0.0 0.0 0.00 0.00 0.00 93 1007.9
20260508104837 39 158 0.0 0.0 0.00 0.00 0.00 93 1007.9
20260508104327 38 135 0.0 0.0 0.00 0.00 0.00 93 1007.8
20260508103819 38 180 0.0 0.0 0.00 0.00 0.00 93 1007.9
20260508103308 38 180 0.0 0.0 0.00 0.00 0.00 94 1007.6
20260508102247 38 135 0.0 0.0 0.00 0.00 0.00 95 1007.5
20260508101737 38 158 0.0 0.0 0.00 0.00 0.00 95 1007.5
20260508101228 37 135 0.0 0.0 0.00 0.00 0.00 94 1007.3
20260508100716 38 135 0.0 0.0 0.00 0.00 0.00 94 1007.2
20260508100206 39 135 0.0 0.0 0.00 0.00 0.00 93 1007.4
20260508095657 39 180 0.0 0.0 0.00 0.00 0.00 94 1007.1
20260508095146 39 158 0.0 0.0 0.00 0.00 0.00 93 1007.2
20260508093617 39 158 0.0 0.0 0.00 0.00 0.00 93 1006.8
20260508093108 39 135 0.0 0.0 0.00 0.00 0.00 94 1007.0
20260508092556 39 135 0.0 0.0 0.00 0.00 0.00 94 1006.8
20260508091536 39 158 0.0 0.0 0.00 0.00 0.00 94 1006.4
20260508090516 38 158 0.0 0.0 0.00 0.00 0.00 94 1006.1
20260508090005 38 158 0.0 0.0 0.00 0.00 0.00 93 1006.1
20260508085457 38 158 0.0 0.0 0.00 0.00 0.00 94 1006.2
20260508084947 38 158 0.0 0.0 0.00 0.00 0.00 93 1006.3
20260508084435 38 158 0.0 0.0 0.00 0.00 0.00 93 1006.0
20260508083924 39 158 0.0 0.0 0.00 0.00 0.00 93 1006.1
20260508083415 38 158 0.0 0.0 0.00 0.00 0.00 93 1005.9
20260508082905 38 180 0.0 0.0 0.00 0.00 0.00 93 1005.9
20260508082355 38 158 0.0 0.0 0.00 0.00 0.00 93 1005.7
20260508081845 38 203 0.0 0.0 0.00 0.00 0.00 93 1005.7
20260508080314 40 203 0.0 0.0 0.00 0.00 0.00 93 1005.7
20260508074744 39 113 0.0 0.0 0.00 0.00 0.00 94 1005.9
20260508074233 39 113 0.0 0.0 0.00 0.00 0.00 93 1006.1
20260508073724 39 135 0.0 0.0 0.00 0.00 0.00 94 1006.1
20260508073213 39 113 0.0 0.0 0.00 0.00 0.00 93 1006.0
20260508072703 39 203 0.0 0.0 0.00 0.00 0.00 94 1006.4
20260508072153 39 135 0.0 0.0 0.00 0.00 0.00 94 1006.4
20260508070622 39 68 0.0 2.0 0.00 0.00 0.00 93 1006.4
20260508070112 40 113 0.0 2.0 0.00 0.00 0.00 92 1006.5
20260508065603 41 135 0.0 2.0 0.00 0.00 0.00 92 1006.6
20260508065053 43 135 0.0 0.0 0.00 0.00 0.00 86 1006.4